Regional Weather Roundup
Issued by NWS

Home | Current Version | Previous Version | Graphics & Text | Print | Product List | Glossary Off
Versions: 1 2 3 4 5 6 7 8 9 10 11 12 13 14 15 16 17 18 19 20 21 22 23 24 25 26 27 28 29 30 31 32 33 34 35 36 37 38 39 40 41 42 43 44 45 46 47 48 49 50

000
ASUS45 KTFX 162219
RWRMT
MONTANA HOURLY WEATHER ROUNDUP
NATIONAL WEATHER SERVICE GREAT FALLS MT
419 PM MDT TUE SEP 16 2014

NOTE: "FAIR" INDICATES FEW OR NO CLOUDS BELOW 12000 FEET WITH NO
SIGNIFICANT WEATHER AND/OR OBSTRUCTIONS TO VISIBILITY.

* THESE STATIONS ARE NOT UNDER NWS QUALITY CONTROL. THEY DO NOT
   REPORT WEATHER SUCH AS PRECIPITATION OR FOG.

MTZ001>007-043-162300-
WEST OF THE DIVIDE
CITY           SKY/WX    TMP DP  RH WIND       PRES   REMARKS
KALISPELL      PTCLDY    79  37  22 S8        29.92F
MISSOULA       CLOUDY    75  39  27 W3        29.94F
BUTTE          CLOUDY    72  39  30 SE3       30.10F
MULLAN PASS    CLOUDY    68  37  32 VRB5      30.09F
* ESSEX        N/A       77  38  25 N4         N/A
* LINCOLN      N/A       77  37  24 W5         N/A
* LOOKOUT PASS N/A       76  42  30 SE6        N/A
* POLSON       N/A       71  40  33 S1G7       N/A
* RONAN APT    PTSUNNY   73  37  27 N8         N/A
* SEELEY LAKE  N/A       78  35  21 S3G8       N/A
* THOMP F APT  CLOUDY    76  35  23 SW3G15     N/A
$$

MTZ008-052>055-162300-
SOUTHWEST MONTANA
CITY           SKY/WX    TMP DP  RH WIND       PRES   REMARKS
BOZEMAN        CLOUDY    73  41  32 SE10      30.03F
DILLON         PTSUNNY   77  39  26 N8        30.08F
W YELLOWSTONE  CLOUDY    72  36  27 N5        30.19F
* THREE FORKS  CLOUDY    73  57  57 N/A        N/A
* BOULDER HILL N/A       75  38  26 SW15G20    N/A
* MONIDA PASS  N/A       71  38  30 NW6G12     N/A
* RAYNOLDS PAS N/A       75  68  79 W6G11      N/A
* WHITEHALL    N/A       78  42  28 NW5G10     N/A
* WISE RIVER   N/A       71  39  31 W12G21     N/A
$$

MTZ009>010-012-014-046-048-049-054-162300-
EAST SLOPES AND CENTRAL MONTANA
CITY           SKY/WX    TMP DP  RH WIND       PRES   REMARKS
CUT BANK       SUNNY     84  36  18 W14G23    29.91F
GREAT FALLS    CLOUDY    81  39  22 SW10      29.93F
HELENA         CLOUDY    75  37  25 CALM      29.98F
MALMSTROM AFB  CLOUDY    81  41  24 SW8       29.94F
* CONRAD       PTCLDY    84  39  20 SE5        N/A
* EAST GLACIER N/A       77  35  22 W14G20     N/A
* MONARCH      N/A       72  29  20 SW9        N/A
* PENDROY      N/A       80  36  20 S4         N/A
* ROGERS PASS  N/A       72  34  25 E7         N/A
* SAINT MARY   N/A       78  35  21 SW7G14     N/A
* SWEET GRASS  N/A       80  34  19 S9G17      N/A
* WHITE SULPH  N/A       74  37  26 SW5        N/A
$$

MTZ011-013-016-021-035-040-045-047-050-051-162300-
NORTH CENTRAL MONTANA
CITY           SKY/WX    TMP DP  RH WIND       PRES   REMARKS
HAVRE          PTCLDY    79  41  26 VRB3      29.89F
LEWISTOWN      PTSUNNY   77  43  30 NE3       29.98F
* CHINOOK      PTCLDY    79  48  34 CALM      29.90F
* FORT BENTON  PTCLDY    81  39  22 CALM      29.91F
* CHESTER      N/A       81  33  18 S2G10      N/A
* DENTON       N/A       78  35  21 NE6        N/A
* GEYSER       N/A       80  38  22 NW6        N/A
* JUDITH GAP   N/A       77  38  25 N9         N/A
* LOMA         N/A       79  42  27 SE2G7      N/A
$$

MTZ017>020-022>027-061-062-162300-
NORTHEAST MONTANA
CITY           SKY/WX    TMP DP  RH WIND       PRES   REMARKS
GLASGOW        SUNNY     75  43  32 S8        29.91F
GLENDIVE       SUNNY     73  45  37 CALM      29.94F
JORDAN         SUNNY     81  45  28 NW3       29.92F
SIDNEY         PTCLDY    73  41  32 E5        29.94F
WOLF POINT     PTCLDY    77  37  24 E3        29.92F
* BEAVER HILL  N/A       73  42  33 NW4G11     N/A
* CIRCLE       N/A       79  47  32 N/A        N/A
* LINDSAY DVD  N/A       76  42  30 W5G10      N/A
* NAVAJO       N/A       74  38  27 S6         N/A
* SACO         N/A       76  46  35 S4         N/A
$$

MTZ028>042-056>058-162300-
SOUTHCENTRAL AND SOUTHEAST MONTANA
CITY           SKY/WX    TMP DP  RH WIND       PRES   REMARKS
BAKER          SUNNY     79  46  31 VRB3      29.95F
BILLINGS       PTSUNNY   84  34  17 S5        29.96F
LIVINGSTON     PTCLDY    81  37  21 W20G25    30.02F
MILES CITY     PTCLDY    79  45  30 VRB6      29.93F
* LAUREL APT   PTCLDY    84  37  19 N/A        N/A
* ROUNDUP APT  CLOUDY    82  43  25 E5         N/A
* ALZADA       N/A       82  34  18 W7G12      N/A
* HYSHAM       N/A       78  40  26 W6         N/A
* LAME DEER    N/A       77  43  30 NW2G8      N/A
* REED POINT   N/A       84  40  21 W11G17     N/A
* ROSCOE HILL  N/A       75  23  14 E4         N/A
$$

REGIONAL REPORTS...DAKOTAS
CITY           SKY/WX    TMP DP  RH WIND       PRES   REMARKS
WILLISTON      PTCLDY    75  34  22 VRB3      29.93F
DICKINSON      PTCLDY    73  48  41 NE7       29.93F
BEACH          N/A       73  45  37 W6        29.96S
CROSBY         HAZE      73  37  27 W3        29.93F VSB 2
TIOGA          SUNNY     73  36  26 W5        29.96F
WATFORD CITY   SUNNY     73  32  22 CALM      29.91F
BISMARCK       SUNNY     75  45  34 CALM      29.93F
GRAND FORKS    PTSUNNY   73  43  34 VRB7      29.93F
FARGO          SUNNY     72  41  33 S5        29.96F
BUFFALO SD     SUNNY     79  46  31 N6        29.89S
RAPID CITY     PTCLDY    81  45  28 CALM      29.96F
$$

REGIONAL REPORTS...WYOMING/IDAHO/WASHINGTON
CITY           SKY/WX    TMP DP  RH WIND       PRES   REMARKS
GILLETTE       SUNNY     84  37  19 N14       30.00F
SHERIDAN       PTCLDY    82  34  18 W3        29.99F
CODY           PTSUNNY   73  45  37 NE3       30.07S
YELLOWSTONE LA PTSUNNY   66  30  26 VRB3      30.31S
SALMON         PTCLDY    72  43  35 N6        30.00F
MULLAN PASS    CLOUDY    68  37  32 VRB5      30.09S
SAND POINT     PTSUNNY   72  46  40 E3        29.88F
SPOKANE        PTSUNNY   81  41  24 NE7       29.86F
$$

REGIONAL REPORTS...ALBERTA
CITY           SKY/WX    TMP DP  RH WIND       PRES   REMARKS
CALGARY        SUNNY     75  39  27 SW5       29.89F
LETHBRIDGE     PTSUNNY   79  41  26 NE8       29.87F
MEDICINE HAT   SUNNY     79  41  26 CALM      29.87F
EDMONTON       SUNNY     79  45  30 W6        29.83F
WATERTON GATE  N/A       81  32  17 W12G21     N/A
CARDSTON       N/A       81  39  22 W6         N/A
MILK RIVER     N/A       82  37  20 S5         N/A
$$

REGIONAL REPORTS...SASKATCHEWAN
CITY           SKY/WX    TMP DP  RH WIND       PRES   REMARKS
SWIFT CURRENT  SUNNY     75  39  27 W7        29.88F
MOOSE JAW      SUNNY     75  43  32 W5        29.90F
REGINA         SUNNY     75  45  34 W5        29.89F
VAL MARIE      N/A       75  45  34 SW8        N/A
ASSINIBOIA     N/A       75  37  25 W9         N/A
CORONACH       N/A       75  37  25 S3         N/A

$$




USA.gov is the U.S. government's official web portal to all federal, state and local government web resources and services.